Date String (YYYY-MM-DD hh:mm:ss) UTC,Instrument flags,Ambient pressure (hPa),Sample flow (lpm),Bypass flow (lpm),Sample temperature (°C),Ambient temperature (°C),ASC tube jacket temperature (°C),LED temperature (°C),Box temperature (°C),Sample RH (%),Span deviation,Mass concentration (μg/m³),Mass concentration (μg/m³),Mass concentration (μg/m³)
DateTimeUTC,F1_M11,P_M11,Q1_M11,Q2_M11,T1_M11,T2_M11,T3_M11,T4_M11,T5_M11,U1_M11,ZSPAN_M11,X0_M11,X2_M11,X1_M11
2022-06-20 01:00:00,,0821.7,5.00,0.00,29.1,27.2,00.0,37.9,30.9,29.5,0000.0,0002.29,0001.41,0001.03
2022-06-20 01:01:00,,0821.7,5.00,0.00,29.1,27.4,00.0,37.9,31.0,29.5,0000.0,0002.25,0001.40,0001.03
2022-06-20 01:02:00,,0821.7,5.01,0.00,29.1,27.6,00.0,37.9,31.1,29.3,0000.0,0002.25,0001.40,0001.04
2022-06-20 01:03:00,,0821.7,5.00,0.00,29.1,27.8,00.0,37.9,31.1,29.1,0000.0,0002.31,0001.41,0001.03
2022-06-20 01:04:00,,0821.7,5.00,0.00,29.2,28.0,00.0,37.9,31.2,28.9,0000.0,0002.24,0001.36,0001.03
2022-06-20 01:05:00,,0821.7,4.99,0.00,29.2,28.2,00.0,37.9,31.2,28.8,0000.0,0002.07,0001.33,0001.02
2022-06-20 01:06:00,,0821.7,5.01,0.00,29.2,28.3,00.0,37.9,31.3,28.7,0000.0,0002.10,0001.33,0001.01
2022-06-20 01:07:00,,0821.7,5.00,0.00,29.3,28.4,00.0,38.0,31.3,28.6,0000.0,0002.19,0001.34,0001.01
2022-06-20 01:08:00,,0821.7,5.00,0.00,29.3,28.5,00.0,38.0,31.4,28.4,0000.0,0002.20,0001.36,0001.02
2022-06-20 01:09:00,,0821.7,5.01,0.00,29.3,28.1,00.0,38.0,31.3,28.4,0000.0,0002.14,0001.33,0001.01
2022-06-20 01:10:00,,0821.7,5.01,0.00,29.3,27.3,00.0,37.9,31.0,28.4,0000.0,0002.10,0001.29,0000.99
2022-06-20 01:11:00,,0821.7,4.99,0.00,29.2,27.0,00.0,37.9,30.9,28.4,0000.0,0002.10,0001.28,0000.98
2022-06-20 01:12:00,,0821.7,5.00,0.00,29.1,27.0,00.0,37.9,30.9,28.4,0000.0,0002.06,0001.26,0000.97
2022-06-20 01:13:00,,0821.7,5.01,0.00,29.1,27.1,00.0,37.9,30.9,28.4,0000.0,0002.10,0001.28,0000.96
2022-06-20 01:14:00,,0821.8,4.99,0.00,29.1,27.3,00.0,37.9,31.0,28.3,0000.0,0002.06,0001.27,0000.97
2022-06-20 01:15:00,,0821.8,5.00,0.00,29.1,27.5,00.0,37.9,31.0,28.3,0000.0,0002.04,0001.26,0000.95
2022-06-20 01:16:00,,0821.8,5.01,0.00,29.1,27.7,00.0,37.9,31.1,28.3,0000.0,0002.15,0001.29,0000.95
2022-06-20 01:17:00,,0821.8,5.01,0.00,29.1,27.8,00.0,37.9,31.1,28.4,0000.0,0002.13,0001.29,0000.95
2022-06-20 01:18:00,,0821.8,5.01,0.00,29.2,28.0,00.0,37.9,31.2,28.6,0000.0,0002.03,0001.26,0000.95
2022-06-20 01:19:00,,0821.8,5.00,0.00,29.2,28.2,00.0,38.0,31.2,28.4,0000.0,0002.03,0001.26,0000.94
2022-06-20 01:20:00,,0821.8,5.00,0.00,29.2,28.3,00.0,38.0,31.3,28.5,0000.0,0002.17,0001.31,0000.95
2022-06-20 01:21:00,,0821.8,5.00,0.00,29.3,28.4,00.0,38.0,31.3,28.4,0000.0,0002.22,0001.33,0000.96
2022-06-20 01:22:00,,0821.8,5.00,0.00,29.3,28.5,00.0,38.0,31.4,28.4,0000.0,0002.12,0001.32,0000.97
2022-06-20 01:23:00,,0821.8,5.00,0.00,29.3,28.0,00.0,38.0,31.3,28.3,0000.0,0002.16,0001.33,0000.98
2022-06-20 01:24:00,,0821.8,5.01,0.00,29.3,27.2,00.0,37.9,31.1,28.2,0000.0,0002.09,0001.30,0000.98
2022-06-20 01:25:00,,0821.8,5.01,0.00,29.2,26.9,00.0,37.9,30.9,28.3,0000.0,0002.14,0001.32,0000.98
2022-06-20 01:26:00,,0821.8,5.00,0.00,29.1,26.9,00.0,37.9,30.9,28.3,0000.0,0002.11,0001.32,0000.99
2022-06-20 01:27:00,,0821.8,4.99,0.00,29.1,27.1,00.0,37.9,30.9,28.2,0000.0,0002.09,0001.32,0001.00
2022-06-20 01:28:00,,0821.8,5.00,0.00,29.1,27.3,00.0,37.9,31.0,28.2,0000.0,0002.08,0001.32,0001.00
2022-06-20 01:29:00,,0821.8,4.99,0.00,29.1,27.5,00.0,37.9,31.0,28.3,0000.0,0002.05,0001.31,0001.01
2022-06-20 01:30:00,,0821.8,5.00,0.00,29.1,27.7,00.0,37.9,31.1,28.2,0000.0,0002.06,0001.32,0001.02
2022-06-20 01:31:00,,0821.8,4.99,0.00,29.1,27.8,00.0,37.9,31.1,28.2,0000.0,0001.96,0001.28,0001.02
2022-06-20 01:32:00,,0821.8,5.00,0.00,29.2,28.0,00.0,37.9,31.2,28.1,0000.0,0002.32,0001.31,0001.03
2022-06-20 01:33:00,,0821.8,5.00,0.00,29.2,28.2,00.0,38.0,31.2,27.9,0000.0,0002.28,0001.29,0001.04
2022-06-20 01:34:00,,0821.8,5.00,0.00,29.3,28.3,00.0,38.0,31.3,27.8,0000.0,0002.27,0001.29,0001.04
2022-06-20 01:35:00,,0821.8,5.02,0.00,29.3,28.4,00.0,38.0,31.3,27.7,0000.0,0002.34,0001.33,0001.06
2022-06-20 01:36:00,,0821.8,4.99,0.00,29.3,28.4,00.0,38.0,31.4,27.6,0000.0,0002.38,0001.37,0001.08
2022-06-20 01:37:00,,0821.8,5.01,0.00,29.3,27.8,00.0,38.0,31.2,27.7,0000.0,0002.48,0001.38,0001.09
2022-06-20 01:38:00,,0821.8,5.02,0.00,29.2,27.0,00.0,37.9,31.0,27.9,0000.0,0002.45,0001.38,0001.10
2022-06-20 01:39:00,,0821.8,5.00,0.00,29.2,26.8,00.0,37.9,30.9,28.0,0000.0,0002.55,0001.42,0001.12
2022-06-20 01:40:00,,0821.8,4.99,0.00,29.1,26.9,00.0,37.9,30.9,28.3,0000.0,0002.63,0001.47,0001.13
2022-06-20 01:41:00,,0821.8,5.00,0.00,29.1,27.0,00.0,37.9,30.9,28.4,0000.0,0002.63,0001.47,0001.14
2022-06-20 01:42:00,,0821.8,5.01,0.00,29.1,27.2,00.0,37.9,30.9,28.8,0000.0,0002.61,0001.46,0001.14
2022-06-20 01:43:00,,0821.8,5.00,0.00,29.1,27.4,00.0,37.9,31.0,29.2,0000.0,0002.42,0001.49,0001.15
2022-06-20 01:44:00,,0821.8,4.99,0.00,29.1,27.6,00.0,37.9,31.0,28.9,0000.0,0002.38,0001.50,0001.17
2022-06-20 01:45:00,,0821.8,5.01,0.00,29.1,27.8,00.0,37.9,31.1,28.7,0000.0,0002.64,0001.57,0001.18
2022-06-20 01:46:00,,0821.8,4.99,0.00,29.1,28.0,00.0,37.9,31.1,28.8,0000.0,0002.73,0001.61,0001.19
2022-06-20 01:47:00,,0821.8,4.99,0.00,29.2,28.1,00.0,37.9,31.2,28.7,0000.0,0002.69,0001.60,0001.19
2022-06-20 01:48:00,,0821.8,5.00,0.00,29.2,28.2,00.0,38.0,31.3,28.5,0000.0,0002.78,0001.64,0001.21
2022-06-20 01:49:00,,0821.8,5.00,0.00,29.3,28.4,00.0,38.0,31.3,28.2,0000.0,0002.83,0001.66,0001.22
2022-06-20 01:50:00,,0821.8,5.01,0.00,29.3,28.5,00.0,38.0,31.3,28.0,0000.0,0003.81,0001.65,0001.23
2022-06-20 01:51:00,,0821.8,5.01,0.00,29.3,28.1,00.0,38.0,31.3,28.0,0000.0,0003.99,0001.65,0001.24
2022-06-20 01:52:00,,0821.8,4.99,0.00,29.2,27.3,00.0,37.9,31.1,28.3,0000.0,0004.11,0001.69,0001.26
2022-06-20 01:53:00,,0821.8,5.00,0.00,29.2,26.8,00.0,37.9,30.9,29.1,0000.0,0004.46,0001.73,0001.28
2022-06-20 01:54:00,,0821.8,5.00,0.00,29.1,26.8,00.0,37.9,30.9,29.1,0000.0,0005.40,0001.71,0001.29
2022-06-20 01:55:00,,0821.8,5.01,0.00,29.1,26.9,00.0,37.9,30.9,29.0,0000.0,0005.37,0001.72,0001.30
2022-06-20 01:56:00,,0821.8,5.00,0.00,29.0,27.1,00.0,37.9,30.9,29.3,0000.0,0005.17,0001.69,0001.32
2022-06-20 01:57:00,,0821.8,4.99,0.00,29.1,27.3,00.0,37.9,30.9,29.9,0000.0,0005.09,0001.65,0001.32
2022-06-20 01:58:00,,0821.8,5.00,0.00,29.1,27.5,00.0,37.9,31.0,30.1,0000.0,0005.07,0001.65,0001.32
2022-06-20 01:59:00,,0821.8,5.01,0.00,29.1,27.7,00.0,37.9,31.0,30.1,0000.0,0004.94,0001.64,0001.33
